Voltar ao catálogo

STARLINK-6058

AtivoComunicaçõesVLEO
NORAD 56797·PAYLOAD·🇺🇸 United States

Lançado May 31, 2023 de Vandenberg Space Force Base

Loading…

Próximas Passagens (próximas 24 horas)

TLE

AtualizadoSource: CelesTrak SupGP

Época: Sep 14, 2026, 14:34 UTC

1 56797C 23078AG  26257.60743056 -.00041230  00000+0 -34556-2 0  2570
2 56797  70.0012 228.2918 0003505 271.0383  98.7543 14.98346535    10

Acompanhe STARLINK-6058 em tempo real com AllMySat

Download on the App Store